Location: Buckeye Ditch
(40.9104°N, 122.9517°W)
Time: 15:10:59
(UTC+00:00)

A-11 Canister half - Pass Details

Date: 24 May 2025
Orbit: 1515 x 1684 km, 47.2° (Epoch: 14 June)

Event Time Altitude Azimuth Distance (km) Brightness Sun altitude
Rises 08:21:54 0° 264° (W) 4,772 11.5 -28.2°
Reaches altitude 10° 08:25:05 10° 267° (W) 3,766 11.0 -28.1°
Maximum altitude 08:34:30 64° 348° (NNW) 1,680 9.3 -28.0°
Drops below altitude 10° 08:43:42 10° 70° (ENE) 3,680 11.3 -27.7°
Sets 08:46:47 0° 73° (ENE) 4,658 11.9 -27.6°
